ヤング彗星

C/2019 K5 ( Young )

English version
Home page
Updated on August 6, 2019

---------------------------------------------------------------------

・ プロフィール

発見日 2019年5月25日
発見光度 17.1等
発見者 David Young (Asteroid Terrestrial-Impact Last Alert System (ATLAS) search program)

・ 写真集

・ 軌道要素

Epoch 2019 June 6.0 TT = JDT 2458640.5                                          
T 2019 June 22.70604 TT                                 MPCLINUX                
q   2.0363680            (2000.0)            P               Q                  
z  +0.0044568      Peri.  174.89267     +0.99066989     +0.13567593             
 +/-0.001065       Node   177.21009     -0.13251440     +0.98100576             
e   0.9909243      Incl.   15.31198     -0.03182931     +0.13863529             
From 161 observations 2019 May 17-June 27, mean residual 0".6.                  

・ 星図

・ 光度変化

        m1 = 11.5 + 5 logΔ + 10.0 log r

---------------------------------------------------------------------

軌道要素はM.P.E.C. 2019-M86に掲載されたものです。
星図はステラナビゲータ Ver.10 (アストロアーツ) で作成したものです。
光度グラフはComet for Windowsで作成したものです。

---------------------------------------------------------------------

Copyright(C) Seiichi Yoshida (comet@aerith.net). All rights reserved.